Regional Weather Roundup
Issued by NWS

Home | Current Version | Previous Version | Text Only | Print | Product List | Glossary On
Versions: 1 2 3 4 5 6 7 8 9 10 11 12 13 14 15 16 17 18 19 20 21 22 23 24 25 26 27 28 29 30 31 32 33 34 35 36 37 38 39 40 41 42 43 44 45 46 47 48 49 50
000
ASUS43 KDTX 192010
RWRMI
MICHIGAN HOURLY REGIONAL WEATHER ROUNDUP
NATIONAL WEATHER SERVICE DETROIT/PONTIAC MI
400 PM EDT SAT APR 19 2014

NOTE: "FAIR" INDICATES FEW OR NO CLOUDS BELOW 12,000 FEET WITH NO
SIGNIFICANT WEATHER AND/OR OBSTRUCTION TO VISIBILITY.

MIZ047>049-052>055-059>063-066>070-074>076-081>083-192100-
SOUTHEAST LOWER MICHIGAN

CITY           SKY/WX    TMP DP  RH WIND       PRES   REMARKS
ADRIAN         SUNNY     54  32  43 SE12      30.38F
ALMA           SUNNY     55  31  39 E10G17    30.36F
ANN ARBOR      SUNNY     56  22  26 E10G17    30.38F
BAD AXE        SUNNY     47  25  42 E9        30.42F
CARO           MOSUNNY   54  28  36 SE5       30.39F
DETROIT CITY   SUNNY     55  28  35 E10       30.40F
DETROIT        MOSUNNY   54  23  30 E7        30.40F
FLINT          SUNNY     57  28  33 SE13G18   30.37F
GROSSE ILE     SUNNY     46  36  66 S12       30.39F
HILLSDALE      SUNNY     56  28  33 E7        30.35F
HOWELL         SUNNY     55  24  29 SE9       30.37F

CITY           SKY/WX    TMP DP  RH WIND       PRES   REMARKS
JACKSON        SUNNY     57  25  29 SE8G17    30.35F
LAMBERTVILLE   SUNNY     52  30  43 E10G17    30.40F
LANSING        SUNNY     59  23  25 E5        30.36F
LAPEER         FAIR      53  29  39 SE5       30.39F
MASON          SUNNY     59  27  30 E6        30.35F
MONROE         SUNNY     52  30  43 SE6       30.39F
MT. CLEMENS    MOSUNNY   54  26  34 VRB3      30.39F
PONTIAC        MOSUNNY   54  25  32 NE9       30.38F
PORT HOPE        N/A     37  33  85 NE10      30.43F WCI  30
PORT HURON     SUNNY     50  32  50 NE7       30.42S
TRI CITIES     SUNNY     52  36  54 NE14      30.40F
TROY           SUNNY     55  25  31 SE6       30.40F
SAGINAW HB     SUNNY     55  28  35 SE8       30.38F
YPSILANTI      SUNNY     58  22  24 SE14      30.39F
$$
MIZ043>046-050>051-056>058-064>065-071>073-077>080-192100-
SOUTHWEST LOWER MICHIGAN

CITY           SKY/WX    TMP DP  RH WIND       PRES   REMARKS
BATTLE CREEK   MOSUNNY   59  26  28 SE8G17    30.33F
BENTON HARBOR  PTSUNNY   63  36  36 SE13G21   30.30F
BIG RAPIDS     SUNNY     55  29  38 SE13      30.34F
COLDWATER      SUNNY     58  25  27 E8G17     30.34F
FREMONT        FAIR      58  25  28 E9        30.33S
HOLLAND        PTSUNNY   62  30  29 SE8       30.32F
GRAND RAPIDS   PTSUNNY   61  29  29 SE13      30.34F
IONIA          FAIR      57  26  30 E12G17    30.34F
KALAMAZOO      MOSUNNY   62  26  25 SE9       30.33F
LUDINGTON      PTSUNNY   52  27  38 W7        30.32F
MARSHALL       SUNNY     59  27  29 SE8       30.33F
MOUNT PLEASANT SUNNY     55  35  46 E10G16    30.36F
MUSKEGON       PTSUNNY   61  28  28 SE9       30.32F
SOUTH HAVEN    PTSUNNY   63  30  28 E9G17     30.31F
$$
MIZ016>042-192100-
NORTHERN LOWER MICHIGAN

CITY           SKY/WX    TMP DP  RH WIND       PRES   REMARKS
ALPENA         SUNNY     42  30  62 E10       30.45F
BEAVER ISLAND  PTSUNNY   44  29  54 E12       30.36F
BELLAIRE       PTSUNNY   59  23  25 SE14      30.33F
CADILLAC       SUNNY     54  30  40 SE10      30.33F
CHARLEVOIX     CLOUDY    53  29  39 W8        30.37F
FRANKFORT      MOSUNNY   54  31  41 CALM      30.32F
GAYLORD        PTSUNNY   54  23  30 SE10      30.35F
GRAYLING       PTSUNNY   55  24  29 SE9       30.36F
HARBOR SPRINGS PTSUNNY   55  28  35 E8        30.34F
HOUGHTON LAKE  MOSUNNY   53  27  36 SE9G18    30.37F
MANISTEE       MOSUNNY   54  28  37 W9        30.32F
OSCODA         SUNNY     41  30  66 E7        30.45F
PELLSTON       PTSUNNY   52  28  39 E15G22    30.37F
ROGERS CITY    MOSUNNY   43  32  64 E12       30.43F
TRAVERSE CITY  CLOUDY    59  23  25 SE12G17   30.31F
$$
MIZ007>008-015-192100-
EASTERN UPPER MICHIGAN

CITY           SKY/WX    TMP DP  RH WIND       PRES   REMARKS
KINROSS        CLOUDY    41  27  56 SE10      30.40F
MACKINAC ISLAN CLOUDY    35  30  81 E17G26    30.40F WCI  25
NEWBERRY       CLOUDY    42  25  51 SE15      30.36F
S. S. MARIE    CLOUDY    41  20  43 E10G18    30.40F
MUNISING         N/A     48  21  34 S21G31    30.28F
$$
MIZ004>006-011>014-085-192100-
CENTRAL UPPER MICHIGAN

CITY           SKY/WX    TMP DP  RH WIND       PRES   REMARKS
MANISTIQUE     MOSUNNY   42  31  65 SE10G16   30.34F
ESCANABA       PTSUNNY   41  30  65 SE13      30.33F
MENOMINEE      MOSUNNY   43  28  56 SE12      30.30F
SAWYER-GWINN   SUNNY     45  21  39 S22G29    30.26F
$$
MIZ001>003-009>011-084-192100-
WESTERN UPPER MICHIGAN

CITY           SKY/WX    TMP DP  RH WIND       PRES   REMARKS
IRON MOUNTAIN  PTSUNNY   49  21  33 S15G24    30.22F
HOUGHTON       CLOUDY    36  28  73 E14       30.11F WCI  27
IRONWOOD       CLOUDY    52  28  40 S20G30    29.99F
$$

ABBREVIATIONS USED IN REMARKS
   TC - TEMPERATURE IN CELSIUS
  WCI - WIND CHILL INDEX
   HX - HEAT INDEX
  VSB - VISIBILITY




USA.gov is the U.S. government's official web portal to all federal, state and local government web resources and services.